Voltar ao catálogo

STARLINK-4769

AtivoComunicaçõesVLEO
NORAD 53843·PAYLOAD·🇺🇸 United States

Lançado Sep 19, 2022 de Cape Canaveral Space Force Station

Loading…

Próximas Passagens (próximas 24 horas)

TLE

AtualizadoSource: CelesTrak SupGP

Época: Sep 15, 2026, 02:46 UTC

1 53843C 22114AB  26258.11576389  .00027976  00000+0  17543-2 0  2586
2 53843  53.1589 163.2141 0001546  83.1851  46.9561 15.08822910    14

Acompanhe STARLINK-4769 em tempo real com AllMySat

Download on the App Store